Weather History for Manchester, NH

Change the Weather History Date:

Friday, January 25, 2013

  Actual Average Record
Temperature  
Mean Temperature 14 °F -  
Max Temperature 21 °F 35 °F 59 °F (1967)
Min Temperature 6 °F 12 °F -12 °F (1961)
Degree Days  
Heating Degree Days 52    
Moisture  
Dew Point -10 °F    
Average Humidity 36    
Maximum Humidity 59    
Minimum Humidity 23    
Precipitation  
Precipitation 0.00 in - - ()
Snow  
Snow 0.00 in - - ()
Snow Depth 1.00 in    
Sea Level Pressure  
Sea Level Pressure 30.24 in    
Wind  
Wind Speed 9 mph (WNW)    
Max Wind Speed 15 mph    
Max Gust Speed 29 mph    
Visibility 10 miles    
Events Snow    
Averages and records for this station are not official NWS values.
T = Trace of Precipitation, MM = Missing Value Source: NWS Daily Summary

Daily Weather History Graph

Daily Weather History Graph

Search for Another Location

Airport:

Trip Planner

Search our weather history database for the weather conditions in past years. The results will help you decide how hot, cold, wet, or windy it might be!

Date:

Astronomy

Jan. 25, 2013 Rise Set
Actual Time 7:07 AM EST 4:49 PM EST
Civil Twilight 6:36 AM EST 5:20 PM EST
Nautical Twilight 6:02 AM EST 5:54 PM EST
Astronomical Twilight 5:28 AM EST 6:28 PM EST
Moon 3:44 PM EST (1/25) 5:45 AM EST (1/25)
Length of Visible Light 10h 43m
Length of Day
9h 42m
Waxing Gibbous, 98% of the Moon is Illuminated
Jan 25
Waxing Gibbous
Jan 26
Full
Feb 3
Last Quarter
Feb 10
New
Feb 17
First Quarter

Hourly Weather History & Observations

Time (EST) Temp. Windchill Dew Point Humidity Pressure Visibility Wind Dir Wind Speed Gust Speed Precip Events Conditions
12:53 AM 8.1 °F -9.0 °F -11.0 °F 42% 30.25 in 10.0 mi WNW 15.0 mph 23.0 mph N/A   Clear
1:53 AM 8.1 °F -8.4 °F -11.0 °F 42% 30.27 in 10.0 mi NW 13.8 mph 24.2 mph N/A   Clear
2:53 AM 8.1 °F -8.4 °F -9.0 °F 46% 30.28 in 10.0 mi NW 13.8 mph 28.8 mph N/A   Clear
3:53 AM 7.0 °F -8.3 °F -9.9 °F 46% 30.28 in 10.0 mi NNW 11.5 mph - N/A   Clear
4:53 AM 6.1 °F -2.8 °F -9.9 °F 48% 30.29 in 10.0 mi NNW 4.6 mph - N/A   Clear
5:53 AM 6.1 °F -0.9 °F -11.0 °F 45% 30.31 in 10.0 mi West 3.5 mph - N/A   Clear
6:53 AM 6.1 °F -5.6 °F -11.0 °F 45% 30.32 in 10.0 mi NNW 6.9 mph - N/A   Clear
7:53 AM 6.1 °F -6.8 °F -9.9 °F 48% 30.33 in 10.0 mi NW 8.1 mph - N/A   Clear
8:53 AM 9.0 °F -2.2 °F -11.0 °F 40% 30.34 in 10.0 mi WNW 6.9 mph - N/A   Clear
9:53 AM 10.0 °F -5.9 °F -9.9 °F 40% 30.35 in 10.0 mi WNW 13.8 mph - N/A   Clear
10:53 AM 14.0 °F -0.2 °F -9.9 °F 34% 30.32 in 10.0 mi NW 12.7 mph 23.0 mph N/A   Clear
11:53 AM 16.0 °F - -9.9 °F 31% 30.30 in 10.0 mi Calm Calm - N/A   Clear
12:53 PM 19.0 °F 10.0 °F -9.0 °F 29% 30.27 in 10.0 mi WNW 6.9 mph - N/A   Clear
1:53 PM 19.9 °F 11.1 °F -11.9 °F 24% 30.23 in 10.0 mi West 6.9 mph - N/A   Clear
2:53 PM 19.9 °F 13.4 °F -11.9 °F 24% 30.21 in 10.0 mi Variable 4.6 mph - N/A   Clear
3:53 PM 21.0 °F 12.4 °F -11.9 °F 23% 30.20 in 10.0 mi WNW 6.9 mph - N/A   Clear
4:53 PM 19.9 °F 12.1 °F -11.0 °F 25% 30.20 in 10.0 mi West 5.8 mph - N/A   Clear
5:53 PM 19.0 °F 13.9 °F -11.0 °F 26% 30.19 in 10.0 mi West 3.5 mph - N/A   Mostly Cloudy
6:53 PM 19.0 °F 12.3 °F -11.0 °F 26% 30.17 in 10.0 mi NNW 4.6 mph - N/A   Overcast
7:53 PM 19.0 °F - -9.0 °F 29% 30.15 in 10.0 mi Calm Calm - N/A   Overcast
8:53 PM 18.0 °F 11.1 °F -9.0 °F 30% 30.14 in 10.0 mi West 4.6 mph - N/A   Overcast
9:53 PM 18.0 °F - -7.1 °F 33% 30.12 in 10.0 mi Calm Calm - N/A   Overcast
10:53 PM 18.0 °F 12.7 °F -7.1 °F 33% 30.12 in 10.0 mi WNW 3.5 mph - N/A   Overcast
11:53 PM 16.0 °F 7.4 °F 3.9 °F 59% 30.11 in 5.0 mi NW 5.8 mph - 0.00 in Snow Light Snow